Regional Weather Roundup
Issued by NWS

Home | Current Version | Previous Version | Graphics & Text | Print | Product List | Glossary On
Versions: 1 2 3 4 5 6 7 8 9 10 11 12 13 14 15 16 17 18 19 20 21 22 23 24 25 26 27 28 29 30 31 32 33 34 35 36 37 38 39 40 41 42 43 44 45 46 47 48 49 50
000
ASUS43 KOAX 300402
RWRNE

WEATHER ROUNDUP FOR NEBRASKA
NATIONAL WEATHER SERVICE OMAHA NE
1100 PM CDT MON AUG 29 2016

NOTES: SATELLITE DATA IS BEING USED TO AUGMENT CLOUD COVER ABOVE
       12000 FEET.
       "FAIR" INDICATES FEW OR NO CLOUDS BELOW 12,000 FEET WITH NO
       SIGNIFICANT WEATHER AND/OR OBSTRUCTIONS TO VISIBILITY.

  * THESE STATIONS DO NOT REPORT WEATHER SUCH AS RAIN...SNOW OR FOG.

NEZ001>004-019>022-054>056-300500-
NEBRASKA PANHANDLE

CITY           SKY/WX    TMP DP  RH WIND       PRES   REMARKS
SCOTTSBLUFF    CLEAR     65  60  84 E5        30.27R
ALLIANCE       PTCLDY    64  60  87 E5        30.27R
CHADRON        PTCLDY    68  58  70 NE6       30.24R
KIMBALL        CLOUDY    64  57  79 CALM      30.33S
SIDNEY         PTCLDY    63  58  83 E6        30.30S
$$

NEZ057>060-069>072-079>082-300500-
SOUTHWEST NEBRASKA

CITY           SKY/WX    TMP DP  RH WIND       PRES   REMARKS
NORTH PLATTE   CLOUDY    69  63  81 CALM      30.24R
IMPERIAL       CLOUDY    68  62  81 SE5       30.25S
LEXINGTON      CLOUDY    72  67  84 S5        30.22S
MCCOOK         CLOUDY    71  66  84 S5        30.24R
$$

NEZ005>010-023>029-035>040-094-300500-
NORTH CENTRAL NEBRASKA

CITY           SKY/WX    TMP DP  RH WIND       PRES   REMARKS
VALENTINE      CLOUDY    66  60  81 W5        30.20F
AINSWORTH      MOCLDY    66  63  91 S5        30.22S
BROKEN BOW     CLOUDY    70  67  90 CALM      30.22R
O`NEILL        PTCLDY    72  65  77 SE6       30.21R
ORD            CLOUDY    69  64  84 SE6       30.20R
THEDFORD       CLOUDY    71  64  76 S5        30.24R
$$

NEZ041-046>049-061>064-073>077-083>087-300500-
SOUTH CENTRAL NEBRASKA

CITY           SKY/WX    TMP DP  RH WIND       PRES   REMARKS
GRAND ISLAND   CLOUDY    68  66  93 N7        30.22R
AURORA         CLOUDY    69  69 100 NE7       30.21R
HASTINGS       CLOUDY    69  67  93 CALM      30.21S
HEBRON         CLOUDY    70  67  92 SE7       30.20R
HOLDREGE       MOCLDY    68  66  93 SW5       30.22S
KEARNEY *      CLOUDY    70  64  83 S5        30.20S
YORK           MOCLDY    68  68 100 NE7       30.21R
$$

NEZ011>018-030>034-042>045-300500-
NORTHEAST NEBRASKA

CITY           SKY/WX    TMP DP  RH WIND       PRES   REMARKS
NORFOLK        CLOUDY    70  65  84 SE10      30.23R
ALBION         CLOUDY    69  64  82 CALM      30.21R
BLAIR          LGT RAIN  70  68  95 SE5       30.21F
FREMONT        CLOUDY    70  68  95 CALM      30.22S
TEKAMAH        LGT RAIN  69  67  93 W5        30.19F
WAYNE          RAIN      69  67  91 S16       30.24S
$$

NEZ050>053-065>068-078-088>093-300500-
SOUTHEAST NEBRASKA

CITY           SKY/WX    TMP DP  RH WIND       PRES   REMARKS
LINCOLN        CLOUDY    71  69  93 N7        30.21R
OMAHA EPPLEY   LGT RAIN  71  68  90 S5        30.21S
BEATRICE       CLOUDY    70  68  94 SE6       30.23R
FALLS CITY     CLOUDY    72  69  90 CALM      30.17R
NEBRASKA CITY  CLOUDY    69  69 100 NE5       30.23R
PLATTSMOUTH    LGT RAIN  69  69  99 CALM      30.21F
$$

NEZ044-045-051>053-067-300500-
OMAHA AREA

CITY           SKY/WX    TMP DP  RH WIND       PRES   REMARKS
OMAHA EPPLEY   LGT RAIN  71  68  90 S5        30.21S
BLAIR          LGT RAIN  70  68  95 SE5       30.21F
FREMONT        CLOUDY    70  68  95 CALM      30.22S
MILLARD        LGT RAIN  71  69  95 CALM      30.20F
OFFUTT AFB     LGT RAIN  69  69 100 NE7       30.19F
PLATTSMOUTH    LGT RAIN  69  69  99 CALM      30.21F
WAHOO          LGT RAIN  69  68  94 E6        30.22F
$$




USA.gov is the U.S. government's official web portal to all federal, state and local government web resources and services.